Terminal Aerodrome Forecast
Issued by NWS Raleigh/Durham, NC

Home | Current Version | Previous Version | Text Only | Print | Product List | Glossary On
Versions: 1 2 3 4 5 6 7 8 9 10 11 12 13 14 15 16 17 18 19 20 21 22 23 24 25 26 27 28 29 30 31 32 33 34 35 36 37 38 39 40 41 42 43 44 45 46 47 48 49 50
000
FTUS42 KRAH 051140
TAFRDU
TAF
KRDU 051140Z 0512/0612 21006KT P6SM SCT110 SCT250
     FM051630 23008KT P6SM VCSH SCT045 BKN120 PROB30 0521/0524
      VRB15G30KT 3SM -TSRA SCT030 BKN045CB BKN120=

USA.gov is the U.S. government's official web portal to all federal, state and local government web resources and services.